Location: Newark
(48.3831°N, 4.1956°E)
Time: 05:02:21
(UTC+00:00)

Envisat - Pass Details

Date: 13 November 2019
Orbit: 764 x 766 km, 98.1° (Epoch: 07 December)

Event Time Altitude Azimuth Distance (km) Brightness Sun altitude
Rises 17:38:44 0° 167° (SSE) 3,220 6.2 -15.2°
Reaches altitude 10° 17:41:02 10° 168° (SSE) 2,298 5.4 -15.6°
Maximum altitude 17:46:06 82° 257° (WSW) 780 3.1 -16.4°
Drops below altitude 10° 17:51:13 10° 345° (NNW) 2,315 5.6 -17.3°
Sets 17:53:32 0° 346° (NNW) 3,245 6.3 -17.6°
